Location: México DF
(19.4326°N, 99.1332°W)
Time: 23:51:49
(UTC+00:00)

ISS - Pass Details

Date: 16 June 2024
Orbit: 412 x 424 km, 51.6° (Epoch: 08 October)

Event Time Altitude Azimuth Distance (km) Brightness Sun altitude
Exits shadow 11:46:50 - 254° (WSW) 1,996 -1.0 -3.3°
Reaches altitude 10° 11:48:27 10° 270° (W) 1,482 -1.5 -3.0°
Maximum altitude 11:50:46 17° 314° (NW) 1,120 -1.8 -2.5°
Drops below altitude 10° 11:53:06 10° 358° (N) 1,503 -0.6 -2.0°
Sets 11:55:44 0° 19° (NNE) 2,383 0.8 -1.4°
